Weather History for Melville Hall, Dominica

Change the Weather History Date:

Tuesday, February 11, 2014

  Actual Average Record
Temperature  
Mean Temperature 78 °F -  
Max Temperature 82 °F 80 °F 84 °F (1998)
Min Temperature 75 °F 71 °F 64 °F (1998)
Cooling Degree Days 14    
Growing Degree Days 28 (Base 50)    
Moisture  
Dew Point 71 °F    
Average Humidity 72    
Maximum Humidity 83    
Minimum Humidity 61    
Precipitation  
Precipitation 0.00 in 0.15 in - ()
Sea Level Pressure  
Sea Level Pressure 30.02 in    
Wind  
Wind Speed 8 mph ()    
Max Wind Speed 13 mph    
Max Gust Speed -    
Visibility 8.5 miles    
Events      
Averages and records for this station are not official NWS values.
T = Trace of Precipitation, MM = Missing Value Source: Averaged Metar Reports

Daily Weather History Graph

Daily Weather History Graph

Search for Another Location

Airport:

Trip Planner

Search our weather history database for the weather conditions in past years. The results will help you decide how hot, cold, wet, or windy it might be!

Date:

Astronomy

Feb. 11, 2014 Rise Set
Actual Time 6:31 AM AST 6:07 PM AST
Civil Twilight 6:09 AM AST 6:29 PM AST
Nautical Twilight 5:44 AM AST 6:54 PM AST
Astronomical Twilight 5:18 AM AST 7:20 PM AST
Moon 3:34 PM AST (2/11) 3:52 AM AST (2/11)
Length of Visible Light 12h 19m
Length of Day
11h 35m
Waxing Gibbous, 90% of the Moon is Illuminated
Feb 11
Waxing Gibbous
Feb 14
Full
Feb 22
Last Quarter
Mar 1
New
Mar 8
First Quarter

Hourly Weather History & Observations

Time (AST) Temp. Heat Index Dew Point Humidity Pressure Visibility Wind Dir Wind Speed Gust Speed Precip Events Conditions
6:00 AM 77.0 °F - 69.8 °F 78% 30.01 in 6.2 mi ESE 8.1 mph - N/A   Scattered Clouds
7:00 AM 77.0 °F - 69.8 °F 78% 30.01 in 6.2 mi East 9.2 mph - N/A   Mostly Cloudy
8:00 AM 79 °F - 70 °F 68% 30.05 in 11 mi East 9.2 mph - -   Partly Cloudy
8:00 AM 78.8 °F - 69.8 °F 74% 30.04 in 6.2 mi East 9.2 mph - N/A   Mostly Cloudy
9:00 AM 78.8 °F - 69.8 °F 74% 30.04 in 6.2 mi ESE 9.2 mph - N/A   Mostly Cloudy
10:00 AM 82.4 °F 87.2 °F 71.6 °F 70% 30.06 in 6.2 mi ESE 9.2 mph - N/A   Mostly Cloudy
11:00 AM 82 °F - 71 °F 61% 30.09 in 17 mi ESE 10.4 mph - -   Partly Cloudy
11:00 AM 82.4 °F 87.2 °F 71.6 °F 70% 30.06 in 6.2 mi ESE 10.4 mph - N/A   Scattered Clouds
12:00 PM 82.4 °F 87.2 °F 71.6 °F 70% 30.04 in 6.2 mi East 9.2 mph - N/A   Mostly Cloudy
1:00 PM 82.4 °F 87.2 °F 71.6 °F 70% 30.01 in 6.2 mi ESE 10.4 mph - N/A   Mostly Cloudy
2:00 PM 81 °F - 71 °F 64% 30.00 in 17 mi ESE 9.2 mph - -   Mostly Cloudy
2:00 PM 80.6 °F 84.6 °F 71.6 °F 74% 29.98 in 6.2 mi ESE 9.2 mph - N/A   Mostly Cloudy
3:00 PM 80.6 °F 83.9 °F 69.8 °F 70% 29.98 in 6.2 mi East 10.4 mph - N/A   Mostly Cloudy
4:00 PM 80.6 °F 84.6 °F 71.6 °F 74% 29.98 in 6.2 mi East 10.4 mph - N/A   Mostly Cloudy
5:00 PM 80 °F - 71 °F 68% 30.00 in 16 mi East 9.2 mph - -   Mostly Cloudy
5:00 PM 80.6 °F 84.6 °F 71.6 °F 74% 29.98 in 6.2 mi East 9.2 mph - N/A   Scattered Clouds
6:00 PM 78.8 °F - 71.6 °F 78% 29.98 in 6.2 mi East 10.4 mph - N/A   Mostly Cloudy
7:00 PM 77.0 °F - 71.6 °F 83% 29.98 in 6.2 mi East 12.7 mph - N/A   Mostly Cloudy
8:00 PM 78 °F - 71 °F 74% 30.02 in 16 mi East 10.4 mph - -   Mostly Cloudy
8:00 PM 78.8 °F - 71.6 °F 78% 30.01 in 6.2 mi East 10.4 mph - N/A   Mostly Cloudy